Regional Weather Roundup
Issued by NWS

Home | Current Version | Previous Version | Text Only | Print | Product List | Glossary On
Versions: 1 2 3 4 5 6 7 8 9 10 11 12 13 14 15 16 17 18 19 20 21 22 23 24 25 26 27 28
000
ASUS44 KBMX 300910
RWRAL

ALABAMA REGIONAL WEATHER ROUNDUP
NATIONAL WEATHER SERVICE BIRMINGHAM AL
400 AM CDT SAT APR 30 2016

NOTE: "FAIR" INDICATES FEW OR NO CLOUDS BELOW 12,000 FEET
WITH NO SIGNIFICANT WEATHER AND/OR OBSTRUCTIONS TO VISIBILITY.

THE REMARK "TC" DENOTES TEMPERATURE IN DEGREES CELSIUS.

ALZ001>011-014-016>018-020-301000-
NORTH ALABAMA

CITY           SKY/WX    TMP DP  RH WIND       PRES   REMARKS
MUSCLE SHOALS  NOT AVBL
HUNTSVILLE     CLOUDY    64  61  90 NE3       29.89R
DECATUR        CLOUDY    62  61  96 CALM      29.90R
HALEYVILLE     FAIR      63  59  87 S5        29.92R
GADSDEN        MOCLDY    59  59 100 CALM      29.91S FOG
$$

ALZ012-013-022-023-030>036-040>044-301000-
WEST CENTRAL ALABAMA

CITY           SKY/WX    TMP DP  RH WIND       PRES   REMARKS
TUSCALOOSA     MOCLDY    63  62  97 CALM      29.89R
$$

ALZ015-024>027-033>036-040>044-301000-
CENTRAL ALABAMA

CITY           SKY/WX    TMP DP  RH WIND       PRES   REMARKS
BIRMINGHAM     CLOUDY    65  60  84 CALM      29.91R
MONTGOMERY     CLOUDY    67  63  87 SE6       29.88F
SHELBY CO ARPT CLOUDY    63  60  90 CALM      29.90R
MAXWELL AFB    MOCLDY    66  65  94 E5        29.88F
GREENVILLE     FAIR      66  62  87 SE3       29.88F
$$

ALZ019-021-028-029-037-038-045>048-301000-
EAST CENTRAL ALABAMA

CITY           SKY/WX    TMP DP  RH WIND       PRES   REMARKS
ANNISTON       PTCLDY    64  59  83 E3        29.92R
ALEXANDER CITY PTCLDY    62  62 100 CALM      29.92R
AUBURN         NOT AVBL
$$

ALZ051>064-301000-
SOUTHWEST ALABAMA

CITY           SKY/WX    TMP DP  RH WIND       PRES   REMARKS
MOBILE         CLOUDY    73  73 100 SE8       29.87S
BROOKLEY FIELD CLOUDY    74  73  97 SE12      29.87R
EVERGREEN      CLOUDY    65  61  87 E3        29.88F
$$

ALZ049-050-065>069-301000-
SOUTHEAST ALABAMA

CITY           SKY/WX    TMP DP  RH WIND       PRES   REMARKS
DOTHAN         CLOUDY    67  65  93 CALM      29.94F
OZARK          CLOUDY    67  66  97 NE3       29.89F
TROY           PTCLDY    67  63  87 CALM      29.91F
EUFAULA        FAIR      65  62  90 CALM      29.89F
$$




USA.gov is the U.S. government's official web portal to all federal, state and local government web resources and services.